• Em Portugal
  • Lista de países
  • Para 7 dias
  • Temperatura da água
  • Mapas de satélite
  • Mapa do tempo
  • Widgets de tempo
  • user-avatar
    Iniciar Sessão

    Previsão horária em Zarka

    Hoje, 25 Setembro, Segunda-feira

    Tempo Temperatura Precipitação Vento Pressão Humidade
    00:00 +22°C° 0 mm 3 m/s 704 mmHg 67%
    01:00 +21°C° 0 mm 3 m/s 704 mmHg 69%
    02:00 +20°C° 0 mm 3 m/s 704 mmHg 72%
    03:00 +20°C° 0 mm 3 m/s 704 mmHg 73%
    04:00 +20°C° 0 mm 2 m/s 704 mmHg 74%
    05:00 +20°C° 0 mm 2 m/s 704 mmHg 75%
    06:00 +21°C° 0 mm 2 m/s 704 mmHg 69%
    07:00 +23°C° 0 mm 2 m/s 704 mmHg 63%
    08:00 +24°C° 0 mm 2 m/s 705 mmHg 57%
    09:00 +26°C° 0 mm 2 m/s 705 mmHg 49%
    10:00 +27°C° 0 mm 2 m/s 705 mmHg 40%
    11:00 +29°C° 0 mm 3 m/s 705 mmHg 32%
    12:00 +30°C° 0 mm 3 m/s 705 mmHg 29%
    13:00 +31°C° 0 mm 3 m/s 705 mmHg 26%
    14:00 +33°C° 0 mm 4 m/s 705 mmHg 23%
    15:00 +32°C° 0 mm 4 m/s 705 mmHg 25%
    16:00 +32°C° 0 mm 4 m/s 705 mmHg 28%
    17:00 +30°C° 0 mm 4 m/s 704 mmHg 30%
    18:00 +29°C° 0 mm 4 m/s 705 mmHg 36%
    19:00 +27°C° 0 mm 4 m/s 705 mmHg 43%
    20:00 +26°C° 0 mm 3 m/s 705 mmHg 49%
    21:00 +25°C° 0 mm 3 m/s 705 mmHg 53%
    22:00 +25°C° 0 mm 3 m/s 704 mmHg 57%
    23:00 +24°C° 0 mm 3 m/s 704 mmHg 61%

    Amanhã, 26 Setembro, Terça-feira

    Tempo Temperatura Precipitação Vento Pressão Humidade
    00:00 +24°C° 0 mm 3 m/s 704 mmHg 63%
    01:00 +23°C° 0 mm 2 m/s 704 mmHg 65%
    02:00 +21°C° 0 mm 2 m/s 704 mmHg 68%
    03:00 +21°C° 0 mm 2 m/s 704 mmHg 69%
    04:00 +21°C° 0 mm 2 m/s 704 mmHg 70%
    05:00 +20°C° 0 mm 2 m/s 704 mmHg 71%
    06:00 +21°C° 0 mm 2 m/s 704 mmHg 66%
    07:00 +22°C° 0 mm 3 m/s 705 mmHg 61%
    08:00 +24°C° 0 mm 3 m/s 705 mmHg 56%
    09:00 +26°C° 0 mm 3 m/s 705 mmHg 48%
    10:00 +28°C° 0 mm 4 m/s 705 mmHg 40%
    11:00 +29°C° 0 mm 4 m/s 706 mmHg 32%
    12:00 +30°C° 0 mm 5 m/s 705 mmHg 30%
    13:00 +32°C° 0 mm 5 m/s 705 mmHg 28%
    14:00 +32°C° 0 mm 6 m/s 705 mmHg 25%
    15:00 +30°C° 0 mm 6 m/s 705 mmHg 31%
    16:00 +29°C° 0 mm 6 m/s 704 mmHg 37%
    17:00 +28°C° 0 mm 6 m/s 704 mmHg 42%
    18:00 +27°C° 0 mm 5 m/s 705 mmHg 48%
    19:00 +25°C° 0 mm 5 m/s 705 mmHg 54%
    20:00 +23°C° 0 mm 4 m/s 705 mmHg 60%
    21:00 +23°C° 0 mm 4 m/s 705 mmHg 62%
    22:00 +22°C° 0 mm 4 m/s 705 mmHg 64%
    23:00 +22°C° 0 mm 4 m/s 705 mmHg 66%

    Depois de amanhã, 27 Setembro, Quarta-feira

    Tempo Temperatura Precipitação Vento Pressão Humidade
    00:00 +21°C° 0 mm 3 m/s 705 mmHg 69%
    01:00 +21°C° 0 mm 3 m/s 705 mmHg 71%
    02:00 +20°C° 0 mm 3 m/s 705 mmHg 73%
    03:00 +20°C° 0 mm 3 m/s 705 mmHg 76%
    04:00 +20°C° 0 mm 3 m/s 705 mmHg 79%
    05:00 +19°C° 0 mm 2 m/s 705 mmHg 81%
    06:00 +20°C° 0 mm 3 m/s 706 mmHg 75%
    07:00 +21°C° 0 mm 3 m/s 706 mmHg 68%
    08:00 +22°C° 0 mm 3 m/s 707 mmHg 62%
    09:00 +25°C° 0 mm 3 m/s 707 mmHg 53%
    10:00 +26°C° 0 mm 4 m/s 707 mmHg 45%
    11:00 +28°C° 0 mm 4 m/s 707 mmHg 36%
    12:00 +29°C° 0 mm 4 m/s 707 mmHg 33%
    13:00 +29°C° 0 mm 5 m/s 706 mmHg 30%
    14:00 +30°C° 0 mm 5 m/s 706 mmHg 28%
    15:00 +29°C° 0 mm 5 m/s 706 mmHg 31%
    16:00 +28°C° 0 mm 5 m/s 706 mmHg 35%
    17:00 +27°C° 0 mm 5 m/s 706 mmHg 39%
    18:00 +26°C° 0 mm 5 m/s 706 mmHg 45%
    19:00 +25°C° 0 mm 4 m/s 706 mmHg 50%
    20:00 +23°C° 0 mm 4 m/s 706 mmHg 56%
    21:00 +22°C° 0 mm 3 m/s 706 mmHg 59%
    22:00 +22°C° 0 mm 3 m/s 706 mmHg 62%
    23:00 +21°C° 0 mm 3 m/s 705 mmHg 66%

    28 Setembro, Quinta-feira

    Tempo Temperatura Precipitação Vento Pressão Humidade
    00:00 +20°C° 0 mm 3 m/s 705 mmHg 68%
    01:00 +20°C° 0 mm 3 m/s 705 mmHg 70%
    02:00 +19°C° 0 mm 2 m/s 705 mmHg 72%
    03:00 +19°C° 0 mm 2 m/s 705 mmHg 74%
    04:00 +19°C° 0 mm 2 m/s 705 mmHg 76%
    05:00 +18°C° 0 mm 2 m/s 705 mmHg 79%
    06:00 +19°C° 0 mm 2 m/s 705 mmHg 72%
    07:00 +20°C° 0 mm 2 m/s 705 mmHg 66%
    08:00 +23°C° 0 mm 2 m/s 706 mmHg 60%
    09:00 +24°C° 0 mm 2 m/s 706 mmHg 51%
    10:00 +26°C° 0 mm 2 m/s 706 mmHg 42%
    11:00 +27°C° 0 mm 2 m/s 706 mmHg 33%
    12:00 +28°C° 0 mm 2 m/s 705 mmHg 30%
    13:00 +29°C° 0 mm 3 m/s 705 mmHg 27%
    14:00 +30°C° 0 mm 3 m/s 704 mmHg 23%
    15:00 +30°C° 0 mm 4 m/s 704 mmHg 26%
    16:00 +29°C° 0 mm 4 m/s 704 mmHg 29%
    17:00 +28°C° 0 mm 5 m/s 704 mmHg 32%
    18:00 +27°C° 0 mm 4 m/s 704 mmHg 40%
    19:00 +26°C° 0 mm 4 m/s 704 mmHg 48%
    20:00 +23°C° 0 mm 4 m/s 704 mmHg 56%
    21:00 +23°C° 0 mm 4 m/s 704 mmHg 60%
    22:00 +22°C° 0 mm 3 m/s 704 mmHg 64%
    23:00 +21°C° 0 mm 3 m/s 704 mmHg 68%

    29 Setembro, Sexta-feira

    Tempo Temperatura Precipitação Vento Pressão Humidade
    00:00 +21°C° 0 mm 3 m/s 703 mmHg 69%
    01:00 +20°C° 0 mm 3 m/s 703 mmHg 71%
    02:00 +20°C° 0 mm 3 m/s 703 mmHg 73%
    03:00 +20°C° 0 mm 3 m/s 703 mmHg 74%
    04:00 +19°C° 0 mm 3 m/s 703 mmHg 76%
    05:00 +19°C° 0 mm 3 m/s 703 mmHg 77%
    06:00 +20°C° 0 mm 3 m/s 703 mmHg 72%
    07:00 +20°C° 0 mm 3 m/s 703 mmHg 67%
    08:00 +21°C° 0 mm 3 m/s 704 mmHg 62%
    09:00 +22°C° 0 mm 4 m/s 704 mmHg 54%
    10:00 +25°C° 0 mm 4 m/s 704 mmHg 46%
    11:00 +26°C° 0 mm 4 m/s 704 mmHg 39%
    12:00 +27°C° 0 mm 5 m/s 703 mmHg 36%
    13:00 +27°C° 0 mm 6 m/s 703 mmHg 34%
    14:00 +28°C° 0 mm 6 m/s 703 mmHg 31%
    15:00 +27°C° 0 mm 6 m/s 703 mmHg 36%
    16:00 +26°C° 0 mm 6 m/s 703 mmHg 41%
    17:00 +24°C° 0 mm 6 m/s 703 mmHg 46%
    18:00 +23°C° 0 mm 6 m/s 703 mmHg 53%
    19:00 +22°C° 0 mm 5 m/s 703 mmHg 59%
    20:00 +21°C° 0 mm 5 m/s 704 mmHg 65%
    21:00 +21°C° 0 mm 4 m/s 703 mmHg 67%
    22:00 +20°C° 0 mm 4 m/s 703 mmHg 69%
    23:00 +20°C° 0 mm 4 m/s 703 mmHg 71%

    30 Setembro, Sábado

    Tempo Temperatura Precipitação Vento Pressão Humidade
    00:00 +20°C° 0 mm 4 m/s 703 mmHg 72%
    01:00 +19°C° 0 mm 3 m/s 703 mmHg 73%
    02:00 +19°C° 0 mm 3 m/s 703 mmHg 74%
    03:00 +19°C° 0 mm 3 m/s 703 mmHg 75%
    04:00 +18°C° 0 mm 3 m/s 703 mmHg 76%
    05:00 +18°C° 0 mm 3 m/s 703 mmHg 77%
    06:00 +19°C° 0 mm 3 m/s 703 mmHg 72%
    07:00 +20°C° 0 mm 3 m/s 704 mmHg 67%
    08:00 +21°C° 0 mm 3 m/s 704 mmHg 62%
    09:00 +22°C° 0 mm 4 m/s 704 mmHg 57%
    10:00 +23°C° 0 mm 4 m/s 704 mmHg 51%
    11:00 +26°C° 0 mm 4 m/s 704 mmHg 45%
    12:00 +26°C° 0 mm 4 m/s 704 mmHg 43%
    13:00 +27°C° 0 mm 5 m/s 704 mmHg 40%
    14:00 +27°C° 0 mm 5 m/s 703 mmHg 38%
    15:00 +27°C° 0 mm 5 m/s 704 mmHg 41%
    16:00 +26°C° 0 mm 5 m/s 704 mmHg 44%
    17:00 +25°C° 0 mm 5 m/s 704 mmHg 48%
    18:00 +23°C° 0 mm 5 m/s 704 mmHg 53%
    19:00 +22°C° 0 mm 4 m/s 704 mmHg 58%
    20:00 +22°C° 0 mm 4 m/s 705 mmHg 63%
    21:00 +21°C° 0 mm 3 m/s 705 mmHg 66%
    22:00 +21°C° 0 mm 3 m/s 705 mmHg 69%
    23:00 +20°C° 0 mm 3 m/s 704 mmHg 72%
    Mostrar mais